User: anonymous   Login
Location: Lac de la Montange Noire
(46.1952°N, 74.2701°W)
Time: 10:54:09
(UTC-04:00)
Language:

Iridium 42 - Orbit

View from above orbital plane
View from above orbital plane
View from above satellite
View from above satellite

Ground track
Ground track

The orbit data is extracted from the following two-line orbital elements,

1 25077U 97077A   18110.45556537  .00000122  00000-0  36437-4 0  9994
2 25077  86.3962 253.3868 0002274  79.4247 280.7205 14.34523327 66246
Epoch (UTC): 20 April 2018 10:56:00
Eccentricity: 0.0002274
inclination: 86.3962°
perigee height: 775 km
apogee height: 778 km
right ascension of ascending node: 253.3868°
argument of perigee: 79.4247°
revolutions per day: 14.34523327
mean anomaly at epoch: 280.7205°
orbit number at epoch: 6624

The dashed part of the orbit path shows where the satellite is in the earth's shadow,  

DLR